RYR3HM LOWW-LDDU

Flight info

Callsign RYR3HM
Flight time 0h 59m
Altitude 35000
Route STEIN DCT NOHAT DCT NEKIN DCT IRDIV DCT NETKO
Aircraft A320/M-SDE3FGHIRWY/LB1

Departure

Time 2026-05-04 15:26
Airport Vienna International Airport (LOWW)

Arrival

Time 2026-05-04 16:26
Airport Dubrovnik Ruđer Bošković Airport (LDDU)
Time Latitude Longitude Altitude Speed Heading
2026-05-04 15:04 48.12050 16.55445 609 ft 0 kts 295°
2026-05-04 15:17 48.12056 16.55425 622 ft 3 kts 295°
2026-05-04 15:17 48.12053 16.55386 614 ft 4 kts 242°
2026-05-04 15:18 48.12024 16.55355 616 ft 6 kts 207°
2026-05-04 15:18 48.11978 16.55323 609 ft 8 kts 205°
2026-05-04 15:18 48.11948 16.55255 617 ft 9 kts 276°
2026-05-04 15:19 48.11869 16.55250 618 ft 11 kts 115°
2026-05-04 15:19 48.11833 16.55360 612 ft 13 kts 116°
2026-05-04 15:19 48.11746 16.55626 618 ft 16 kts 116°
2026-05-04 15:20 48.11696 16.55779 616 ft 17 kts 115°
2026-05-04 15:20 48.11642 16.55944 617 ft 18 kts 116°
2026-05-04 15:20 48.11585 16.56120 616 ft 19 kts 116°
2026-05-04 15:20 48.11524 16.56306 620 ft 20 kts 115°
2026-05-04 15:21 48.11460 16.56501 611 ft 21 kts 116°
2026-05-04 15:21 48.11395 16.56704 620 ft 22 kts 115°
2026-05-04 15:21 48.11260 16.57117 617 ft 21 kts 116°
2026-05-04 15:22 48.11243 16.57279 609 ft 15 kts 42°
2026-05-04 15:22 48.11343 16.57352 609 ft 17 kts 26°
2026-05-04 15:22 48.11571 16.57445 616 ft 18 kts 347°
2026-05-04 15:23 48.11696 16.57393 617 ft 19 kts 344°
2026-05-04 15:23 48.11828 16.57337 616 ft 20 kts 344°
2026-05-04 15:23 48.11947 16.57290 618 ft 14 kts 354°
2026-05-04 15:23 48.12001 16.57389 611 ft 14 kts 72°
2026-05-04 15:24 48.11993 16.57610 609 ft 8 kts 104°
2026-05-04 15:24 48.11955 16.57812 620 ft 12 kts 120°
2026-05-04 15:25 48.11926 16.57839 615 ft 0 kts 160°
2026-05-04 15:25 48.11925 16.57839 614 ft 1 kts 160°
2026-05-04 15:25 48.11814 16.57890 612 ft 47 kts 164°
2026-05-04 15:26 48.10442 16.58471 618 ft 149 kts 164°
2026-05-04 15:26 48.09395 16.58896 1020 ft 155 kts 164°
2026-05-04 15:26 48.07273 16.59795 2010 ft 173 kts 165°
2026-05-04 15:27 48.06065 16.60328 2357 ft 188 kts 165°
2026-05-04 15:27 48.03210 16.61538 3076 ft 237 kts 166°
2026-05-04 15:28 47.99926 16.62909 4631 ft 252 kts 167°
2026-05-04 15:28 47.98172 16.63393 5431 ft 256 kts 180°
2026-05-04 15:28 47.94553 16.63201 6933 ft 267 kts 185°
2026-05-04 15:29 47.92688 16.63077 7693 ft 270 kts 184°
2026-05-04 15:30 47.84996 16.62577 10472 ft 293 kts 185°
2026-05-04 15:30 47.78295 16.62139 11498 ft 337 kts 184°
2026-05-04 15:31 47.73569 16.61864 12855 ft 342 kts 183°
2026-05-04 15:31 47.71174 16.61726 13517 ft 346 kts 183°
2026-05-04 15:32 47.63872 16.61281 15240 ft 355 kts 184°
2026-05-04 15:32 47.58926 16.60966 16308 ft 362 kts 184°
2026-05-04 15:33 47.53853 16.60647 17400 ft 368 kts 184°
2026-05-04 15:34 47.46051 16.60168 18982 ft 380 kts 184°
2026-05-04 15:34 47.43405 16.60005 19477 ft 383 kts 184°
2026-05-04 15:34 47.38004 16.59990 20485 ft 392 kts 180°
2026-05-04 15:35 47.32493 16.60329 21406 ft 400 kts 179°
2026-05-04 15:35 47.29698 16.60509 21848 ft 404 kts 180°
2026-05-04 15:35 47.26876 16.60668 22277 ft 408 kts 180°
2026-05-04 15:36 47.21153 16.60927 23115 ft 415 kts 180°
2026-05-04 15:36 47.18256 16.61047 23524 ft 418 kts 180°
2026-05-04 15:36 47.15333 16.61166 23864 ft 422 kts 180°
2026-05-04 15:37 47.12424 16.61284 24205 ft 425 kts 180°
2026-05-04 15:37 47.09459 16.61406 24543 ft 427 kts 180°
2026-05-04 15:37 47.06478 16.61538 24875 ft 430 kts 180°
2026-05-04 15:37 47.03475 16.61675 25202 ft 433 kts 180°
2026-05-04 15:38 47.00455 16.61810 25524 ft 436 kts 180°
2026-05-04 15:38 46.97416 16.61944 25844 ft 438 kts 180°
2026-05-04 15:38 46.94358 16.62077 26169 ft 441 kts 180°
2026-05-04 15:38 46.91287 16.62208 26487 ft 443 kts 180°
2026-05-04 15:39 46.88195 16.62337 26806 ft 446 kts 180°
2026-05-04 15:39 46.86105 16.62424 27015 ft 447 kts 180°
2026-05-04 15:39 46.79847 16.62867 27652 ft 453 kts 174°
2026-05-04 15:40 46.76717 16.63470 27968 ft 455 kts 174°
2026-05-04 15:40 46.73572 16.64076 28353 ft 456 kts 174°
2026-05-04 15:40 46.70432 16.64680 28821 ft 454 kts 173°
2026-05-04 15:40 46.67302 16.65283 29268 ft 454 kts 174°
2026-05-04 15:41 46.64172 16.65881 29722 ft 453 kts 173°
2026-05-04 15:41 46.61054 16.66472 30166 ft 452 kts 174°
2026-05-04 15:41 46.57936 16.67063 30564 ft 451 kts 173°
2026-05-04 15:41 46.54826 16.67656 30964 ft 450 kts 173°
2026-05-04 15:42 46.51763 16.68242 31350 ft 449 kts 173°
2026-05-04 15:42 46.48628 16.68838 31762 ft 448 kts 174°
2026-05-04 15:42 46.45572 16.69416 32172 ft 448 kts 174°
2026-05-04 15:42 46.42490 16.69998 32562 ft 447 kts 174°
2026-05-04 15:43 46.39407 16.70628 32951 ft 447 kts 172°
2026-05-04 15:43 46.36348 16.71439 33334 ft 447 kts 169°
2026-05-04 15:43 46.33312 16.72393 33721 ft 447 kts 168°
2026-05-04 15:43 46.30283 16.73418 34083 ft 446 kts 168°
2026-05-04 15:44 46.27265 16.74451 34395 ft 446 kts 168°
2026-05-04 15:44 46.24245 16.75461 34702 ft 445 kts 168°
2026-05-04 15:44 46.21227 16.76434 34962 ft 445 kts 169°
2026-05-04 15:45 46.15120 16.78319 35033 ft 455 kts 169°
2026-05-04 15:45 46.08884 16.80213 35033 ft 459 kts 169°
2026-05-04 15:46 46.02635 16.82129 35035 ft 460 kts 169°
2026-05-04 15:46 45.96380 16.84053 35029 ft 460 kts 169°
2026-05-04 15:47 45.90113 16.85979 35038 ft 460 kts 169°
2026-05-04 15:47 45.83840 16.87900 35039 ft 461 kts 169°
2026-05-04 15:48 45.77560 16.89815 35045 ft 461 kts 169°
2026-05-04 15:48 45.68136 16.92678 35048 ft 462 kts 169°
2026-05-04 15:49 45.61854 16.94584 35050 ft 461 kts 169°
2026-05-04 15:49 45.55574 16.96491 35050 ft 461 kts 169°
2026-05-04 15:50 45.49298 16.98385 35049 ft 461 kts 169°
2026-05-04 15:50 45.43059 17.00265 35054 ft 461 kts 169°
2026-05-04 15:51 45.36779 17.02157 35047 ft 462 kts 169°
2026-05-04 15:51 45.30490 17.04047 35050 ft 462 kts 169°
2026-05-04 15:52 45.24191 17.05933 35046 ft 463 kts 169°
2026-05-04 15:52 45.17885 17.07810 35047 ft 463 kts 169°
2026-05-04 15:53 45.11570 17.09694 35050 ft 464 kts 169°
2026-05-04 15:53 45.05252 17.11564 35045 ft 464 kts 169°
2026-05-04 15:54 44.98923 17.13369 35036 ft 464 kts 170°
2026-05-04 15:54 44.92581 17.15122 35028 ft 464 kts 170°
2026-05-04 15:55 44.86238 17.16871 35038 ft 465 kts 170°
2026-05-04 15:55 44.79897 17.18639 35029 ft 465 kts 170°
2026-05-04 15:56 44.73549 17.20422 35035 ft 465 kts 170°
2026-05-04 15:56 44.67198 17.22196 35049 ft 466 kts 170°
2026-05-04 15:57 44.60880 17.23940 35058 ft 466 kts 170°
2026-05-04 15:57 44.54507 17.25694 35058 ft 467 kts 170°
2026-05-04 15:58 44.48132 17.27450 35058 ft 467 kts 170°
2026-05-04 15:58 44.41750 17.29210 35054 ft 468 kts 170°
2026-05-04 15:59 44.35356 17.30972 35069 ft 468 kts 170°
2026-05-04 15:59 44.28957 17.32721 35062 ft 469 kts 170°
2026-05-04 16:00 44.22554 17.34477 35070 ft 469 kts 170°
2026-05-04 16:00 44.16195 17.36218 35072 ft 469 kts 170°
2026-05-04 16:01 44.09790 17.37953 35070 ft 470 kts 170°
2026-05-04 16:01 44.03369 17.39689 35071 ft 470 kts 170°
2026-05-04 16:02 43.96946 17.41429 35067 ft 470 kts 170°
2026-05-04 16:03 43.87291 17.44044 35078 ft 472 kts 170°
2026-05-04 16:03 43.80853 17.45779 35077 ft 472 kts 170°
2026-05-04 16:04 43.74394 17.47520 35090 ft 472 kts 170°
2026-05-04 16:04 43.64708 17.50114 35047 ft 474 kts 170°
2026-05-04 16:05 43.61471 17.50985 34798 ft 474 kts 170°
2026-05-04 16:05 43.58230 17.51856 34096 ft 477 kts 170°
2026-05-04 16:05 43.51686 17.53606 32252 ft 485 kts 170°
2026-05-04 16:06 43.48383 17.54485 31422 ft 478 kts 170°
2026-05-04 16:06 43.39995 17.56708 29948 ft 442 kts 170°
2026-05-04 16:07 43.36067 17.57750 29197 ft 427 kts 170°
2026-05-04 16:07 43.27375 17.60053 27576 ft 424 kts 170°
2026-05-04 16:08 43.24471 17.60821 27031 ft 424 kts 170°
2026-05-04 16:08 43.15781 17.63112 25420 ft 424 kts 169°
2026-05-04 16:09 43.09977 17.64627 24365 ft 424 kts 171°
2026-05-04 16:09 43.04131 17.64530 23323 ft 420 kts 194°
2026-05-04 16:10 42.98822 17.61531 22382 ft 410 kts 214°
2026-05-04 16:11 42.91597 17.55404 20714 ft 411 kts 206°
2026-05-04 16:11 42.88813 17.54309 19744 ft 424 kts 186°
2026-05-04 16:12 42.80897 17.57899 18580 ft 404 kts 139°
2026-05-04 16:12 42.74529 17.65211 16965 ft 396 kts 138°
2026-05-04 16:13 42.70334 17.70075 15602 ft 398 kts 138°
2026-05-04 16:13 42.66207 17.74813 15167 ft 374 kts 138°
2026-05-04 16:14 42.62369 17.79292 14575 ft 357 kts 131°
2026-05-04 16:14 42.59616 17.84888 13146 ft 363 kts 116°
2026-05-04 16:15 42.56025 17.94105 10723 ft 363 kts 116°
2026-05-04 16:16 42.53766 17.99831 10038 ft 320 kts 116°
2026-05-04 16:16 42.50835 18.07237 8718 ft 289 kts 116°
2026-05-04 16:17 42.48975 18.11950 7939 ft 269 kts 116°
2026-05-04 16:18 42.46496 18.18237 6905 ft 245 kts 116°
2026-05-04 16:18 42.45696 18.20267 6419 ft 244 kts 117°
2026-05-04 16:19 42.43303 18.26317 5663 ft 243 kts 117°
2026-05-04 16:19 42.41823 18.30171 5408 ft 224 kts 110°
2026-05-04 16:20 42.41810 18.36079 4362 ft 204 kts 68°
2026-05-04 16:20 42.43301 18.39150 3783 ft 193 kts 42°
2026-05-04 16:21 42.46696 18.41389 2950 ft 177 kts
2026-05-04 16:22 42.49130 18.41082 2524 ft 174 kts 338°
2026-05-04 16:22 42.51711 18.37941 2497 ft 159 kts 297°
2026-05-04 16:23 42.53244 18.34120 1939 ft 152 kts 300°
2026-05-04 16:24 42.55190 18.29217 702 ft 146 kts 298°
2026-05-04 16:25 42.56054 18.27027 534 ft 85 kts 300°
2026-05-04 16:26 42.56271 18.26221 534 ft 9 kts 155°
2026-05-04 16:26 42.56206 18.26207 534 ft 4 kts 223°
2026-05-04 16:27 42.56147 18.26154 534 ft 1 kts 208°
2026-05-04 16:28 42.56143 18.26151 534 ft 0 kts 208°